星链-30597 (STARLINK-30597 )

导读 | 星芒AI

STARLINK-30597 是 SpaceX 星链计划中的一颗低轨通信卫星,属于第 12 批星链卫星任务(Transporter 5)的一部分,于 2023 年 11 月发射。该卫星运行在约 550 公里的轨道高度,旨在为全球用户提供高速互联网服务。作为星链星座的组成部分,它支持宽带通信,提升偏远地区的网络覆盖。卫星采用先进推进系统,具备自主变轨和避碰能力,有助于降低太空碎片风险。

基本信息
目录编号:
58078
目录名称:
STARLINK-30597
国际标识:
2023-160D
轨道中心:
EARTH
卫星名称:
星链-30597
卫星全名:
星链-30597 (STARLINK-30597 )
卫星状态:
在轨 (已飞行794 天)
发射日期:
2023-10-18 UTC
国别 :
美国 (US)
星等 :
--
轨道信息
数据来源 国际轨道数据 AOE轨道数据
星历时间 2025-12-19T20:22:55+0800
20小时前
查看轨道信息
2025-12-18T06:00:00+0800
2天前
查看轨道信息
半长轴 6937.22km 6937.232km
偏心率 0.0001163 0.0001588
轨道倾角 43.003° 43.002°
近地点辐角 248.513° 219.375°
升交点赤经 156.228° 164.921°
平近点角 111.559° 120.234°
近地点 558.276km 557.995km
远地点 559.89km 560.199km
周期 95.838分钟 95.838分钟
每日圈数 15.02535 15.025313
详细信息
固有亮度:
5
最大亮度:
0.3
卫星平台:
Starlink v2.0 mini
覆盖范围:
全球
运营商:
太空探索技术公司
运营商所在国:
美国
制造商(研发单位):
太空探索技术公司
制造商所在国:
美国
使用方式:
暂无
卫星简介
星链(Starlink)计划是由太空探索技术公司(SpaceX)提出的一个巨型低轨卫星互联网星座项目,计划在2019年至2024年间在太空搭建由约1.2万颗卫星组成的“星链”网络,其中1584颗将部署在地球上空550千米处的近地轨道,并从2020年开始工作。该卫星仍在工作。
2D轨道图
3D轨道图
轨道高度分析图
轨道倾角分析图
轨道综合分析图
查看轨道综合分析图